DB0LC-2 Weather Reports


Display with metric or nautical units.
time (UTC)temp
F
wind
direction
speed
MPH
gust
MPH
rain 1hr
in
rain 24hr
in
rain mn
in
humidity
%
barometer
mb
20260902035539 68 0 0.0 0.0 0.00 0.00 0.00 56 918.0
20260902032434 67 0 0.0 0.0 0.00 0.00 0.00 58 918.2
20260902032431 67 0 0.0 0.0 0.00 0.00 0.00 58 918.2
20260902031345 69 0 0.0 0.0 0.00 0.00 0.00 59 918.1
20260902030345 68 0 0.0 0.0 0.00 0.00 0.00 60 918.1
20260902025334 67 0 0.0 0.0 0.00 0.00 0.00 59 918.2
20260902024333 68 0 0.0 0.0 0.00 0.00 0.00 56 918.2
20260902023333 68 0 0.0 0.0 0.00 0.00 0.00 59 918.2
20260902022330 67 0 0.0 0.0 0.00 0.00 0.00 59 918.1
20260902021232 68 0 0.0 0.0 0.00 0.00 0.00 54 918.2
20260902020154 68 0 0.0 0.0 0.00 0.00 0.00 60 918.3
20260902015105 68 0 0.0 0.0 0.00 0.00 0.00 59 918.4
20260902014025 68 0 0.0 0.0 0.00 0.00 0.00 57 918.4
20260902012953 68 0 0.0 0.0 0.00 0.00 0.00 60 918.4
20260902011924 68 0 0.0 0.0 0.00 0.00 0.00 59 918.4
20260902011922 68 0 0.0 0.0 0.00 0.00 0.00 59 918.5
20260902005822 68 0 0.0 0.0 0.00 0.00 0.00 60 918.4
20260902004812 68 0 0.0 0.0 0.00 0.00 0.00 60 918.5
20260902004810 68 0 0.0 0.0 0.00 0.00 0.00 60 918.4
20260902003749 68 0 0.0 0.0 0.00 0.00 0.00 56 918.3
20260902002709 68 0 0.0 0.0 0.00 0.00 0.00 60 918.5
20260902001613 67 0 0.0 0.0 0.00 0.00 0.00 59 918.6
20260902000602 69 0 0.0 0.0 0.00 0.00 0.00 58 918.5
20260901235539 68 0 0.0 0.0 0.00 0.00 0.00 60 918.6
20260901234506 67 0 0.0 0.0 0.00 0.00 0.00 59 918.5
20260901233447 68 0 0.0 0.0 0.00 0.00 0.00 55 918.7
20260901232422 68 0 0.0 0.0 0.00 0.00 0.00 60 918.7
20260901231412 67 0 0.0 0.0 0.00 0.00 0.00 59 918.7
20260901230346 68 0 0.0 0.0 0.00 0.00 0.00 57 918.7
20260901225309 68 0 0.0 0.0 0.00 0.00 0.00 60 918.8
20260901224245 67 0 0.0 0.0 0.00 0.00 0.00 59 918.8
20260901222155 68 0 0.0 0.0 0.00 0.00 0.00 60 918.9
20260901221110 67 0 0.0 0.0 0.00 0.00 0.00 58 919.0
20260901221107 67 0 0.0 0.0 0.00 0.00 0.00 58 919.0
20260901220030 69 0 0.0 0.0 0.00 0.00 0.00 60 919.2
20260901213905 68 0 0.0 0.0 0.00 0.00 0.00 57 919.1
20260901212838 68 0 0.0 0.0 0.00 0.00 0.00 60 919.0
20260901211815 68 0 0.0 0.0 0.00 0.00 0.00 60 919.0
20260901210804 68 0 0.0 0.0 0.00 0.00 0.00 56 919.3
20260901204726 68 0 0.0 0.0 0.00 0.00 0.00 59 919.1
20260901203715 68 0 0.0 0.0 0.00 0.00 0.00 55 919.1
20260901201534 68 0 0.0 0.0 0.00 0.00 0.00 59 919.0
20260901200519 68 0 0.0 0.0 0.00 0.00 0.00 55 919.1
20260901195515 68 0 0.0 0.0 0.00 0.00 0.00 60 919.0
20260901194457 68 0 0.0 0.0 0.00 0.00 0.00 59 919.0
20260901193458 68 0 0.0 0.0 0.00 0.00 0.00 57 919.0
20260901192457 68 0 0.0 0.0 0.00 0.00 0.00 60 919.0
20260901191431 67 0 0.0 0.0 0.00 0.00 0.00 59 919.0
20260901190421 68 0 0.0 0.0 0.00 0.00 0.00 58 918.9
20260901185357 67 0 0.0 0.0 0.00 0.00 0.00 58 918.8
20260901184356 68 0 0.0 0.0 0.00 0.00 0.00 60 918.9
20260901183331 68 0 0.0 0.0 0.00 0.00 0.00 58 918.8
20260901182322 68 0 0.0 0.0 0.00 0.00 0.00 59 918.8
20260901181253 68 0 0.0 0.0 0.00 0.00 0.00 59 918.6
20260901180225 68 0 0.0 0.0 0.00 0.00 0.00 55 918.5
20260901175216 68 0 0.0 0.0 0.00 0.00 0.00 59 918.4
20260901174205 68 0 0.0 0.0 0.00 0.00 0.00 55 918.4
20260901173156 68 0 0.0 0.0 0.00 0.00 0.00 59 918.3
20260901172152 68 0 0.0 0.0 0.00 0.00 0.00 59 918.4
20260901170141 68 0 0.0 0.0 0.00 0.00 0.00 59 918.4
20260901165140 68 0 0.0 0.0 0.00 0.00 0.00 57 918.5
20260901163144 68 0 0.0 0.0 0.00 0.00 0.00 59 918.5
20260901162141 68 0 0.0 0.0 0.00 0.00 0.00 55 918.3
20260901161140 68 0 0.0 0.0 0.00 0.00 0.00 59 918.3
20260901160144 68 0 0.0 0.0 0.00 0.00 0.00 58 918.5
20260901155127 68 0 0.0 0.0 0.00 0.00 0.00 60 918.5
20260901154122 68 0 0.0 0.0 0.00 0.00 0.00 59 918.4
20260901153127 68 0 0.0 0.0 0.00 0.00 0.00 56 918.4
20260901151128 68 0 0.0 0.0 0.00 0.00 0.00 58 918.4
20260901150109 69 0 0.0 0.0 0.00 0.00 0.00 59 918.4
20260901145049 68 0 0.0 0.0 0.00 0.00 0.00 59 918.5
20260901144037 68 0 0.0 0.0 0.00 0.00 0.00 57 918.6
20260901143033 68 0 0.0 0.0 0.00 0.00 0.00 60 918.5
20260901142011 68 0 0.0 0.0 0.00 0.00 0.00 59 918.5
20260901141025 68 0 0.0 0.0 0.00 0.00 0.00 56 918.3
20260901140002 68 0 0.0 0.0 0.00 0.00 0.00 60 918.4
20260901132911 68 0 0.0 0.0 0.00 0.00 0.00 60 918.6
20260901131857 68 0 0.0 0.0 0.00 0.00 0.00 57 918.6
20260901130846 68 0 0.0 0.0 0.00 0.00 0.00 60 918.8
20260901125849 68 0 0.0 0.0 0.00 0.00 0.00 60 918.7
20260901125847 68 0 0.0 0.0 0.00 0.00 0.00 60 918.7
20260901124820 68 0 0.0 0.0 0.00 0.00 0.00 57 918.9
20260901123820 68 0 0.0 0.0 0.00 0.00 0.00 60 918.9
20260901122743 68 0 0.0 0.0 0.00 0.00 0.00 57 919.0
20260901115720 68 0 0.0 0.0 0.00 0.00 0.00 56 919.1
20260901114653 68 0 0.0 0.0 0.00 0.00 0.00 60 919.2
20260901113653 68 0 0.0 0.0 0.00 0.00 0.00 59 919.1
20260901112642 69 0 0.0 0.0 0.00 0.00 0.00 59 919.2
20260901112640 69 0 0.0 0.0 0.00 0.00 0.00 59 919.1
20260901111623 68 0 0.0 0.0 0.00 0.00 0.00 60 919.2
20260901110528 68 0 0.0 0.0 0.00 0.00 0.00 58 919.4
20260901105438 69 0 0.0 0.0 0.00 0.00 0.00 60 919.3
20260901104404 68 0 0.0 0.0 0.00 0.00 0.00 60 919.2
20260901103323 68 0 0.0 0.0 0.00 0.00 0.00 59 919.2
20260901102249 69 0 0.0 0.0 0.00 0.00 0.00 59 919.2
20260901101211 68 0 0.0 0.0 0.00 0.00 0.00 60 919.4
20260901100147 68 0 0.0 0.0 0.00 0.00 0.00 60 919.5
20260901095136 68 0 0.0 0.0 0.00 0.00 0.00 56 919.4
20260901094109 68 0 0.0 0.0 0.00 0.00 0.00 60 919.5
20260901093034 68 0 0.0 0.0 0.00 0.00 0.00 61 919.5
20260901092028 68 0 0.0 0.0 0.00 0.00 0.00 58 919.4
20260901085857 68 0 0.0 0.0 0.00 0.00 0.00 60 919.6
20260901084831 68 0 0.0 0.0 0.00 0.00 0.00 58 919.4
20260901083802 68 0 0.0 0.0 0.00 0.00 0.00 60 919.4
20260901082739 68 0 0.0 0.0 0.00 0.00 0.00 61 919.3
20260901081718 67 0 0.0 0.0 0.00 0.00 0.00 58 919.4
20260901081716 67 0 0.0 0.0 0.00 0.00 0.00 58 919.5
20260901074630 69 0 0.0 0.0 0.00 0.00 0.00 60 919.1
20260901074628 69 0 0.0 0.0 0.00 0.00 0.00 60 919.2
20260901073521 68 0 0.0 0.0 0.00 0.00 0.00 60 919.0
20260901071359 68 0 0.0 0.0 0.00 0.00 0.00 56 919.0
20260901070323 68 0 0.0 0.0 0.00 0.00 0.00 61 918.9
20260901065305 68 0 0.0 0.0 0.00 0.00 0.00 61 918.8
20260901064233 68 0 0.0 0.0 0.00 0.00 0.00 56 918.9
20260901063142 68 0 0.0 0.0 0.00 0.00 0.00 60 918.9
20260901062118 68 0 0.0 0.0 0.00 0.00 0.00 61 918.9
20260901061018 68 0 0.0 0.0 0.00 0.00 0.00 58 918.9
20260901055925 68 0 0.0 0.0 0.00 0.00 0.00 60 919.0
20260901054825 68 0 0.0 0.0 0.00 0.00 0.00 60 918.9
20260901053745 68 0 0.0 0.0 0.00 0.00 0.00 58 918.8
20260901053742 68 0 0.0 0.0 0.00 0.00 0.00 58 918.8
20260901052701 69 0 0.0 0.0 0.00 0.00 0.00 60 918.8
20260901051624 68 0 0.0 0.0 0.00 0.00 0.00 61 918.7
20260901050534 68 0 0.0 0.0 0.00 0.00 0.00 58 918.8
20260901045514 68 0 0.0 0.0 0.00 0.00 0.00 60 918.7
20260901044420 68 0 0.0 0.0 0.00 0.00 0.00 61 918.6
20260901043332 67 0 0.0 0.0 0.00 0.00 0.00 58 918.6